Kosmos-726

operational
NORAD ID: 7736 Int'l Des: 1975-028 Owner: OKB10 Country: SU
LEOCIRCULARPOLAR

About Kosmos-726

Description loading...

Live Position

Loading 3D Globe...

Upcoming Passes

Altitude History

Altitude vs Time

uPlot chart will show altitude changes over time

Two-Line Element Set

1 07736U 75028A 26063.18801068 .00000087 00000-0 70773-4 0 9997
2 07736 82.9949 299.5985 0025528 344.7941 15.2447 13.78445957559226
Epoch: Mar 4, 2026 • Age: 24 hours

Current Status

Altitude 966.3 km
Velocity 7.38 km/s
Sub-Earth Point 42.51°N, 144.47°E
Type other

Large Constellations

Loading constellations...